Time,TemperatureF,DewpointF,PressureIn,WindDirection,WindDirectionDegrees,WindSpeedMPH,WindSpeedGustMPH,Humidity,HourlyPrecipIn,Conditions,Clouds,dailyrainin,SoftwareType,DateUTC
2013-02-27 00:00:00,43.9,0.0,29.49,West,270,1.0,6.0,0,0.00,,,0.69,Weather View 32 v70,2013-02-27 05:00:00,
2013-02-27 00:01:00,43.7,0.0,29.48,West,270,0.0,6.0,0,0.00,,,0.00,Weather View 32 v70,2013-02-27 05:01:00,
2013-02-27 00:06:00,43.9,0.0,29.49,West,270,0.0,6.0,0,0.00,,,0.00,Weather View 32 v70,2013-02-27 05:06:00,
2013-02-27 00:12:00,43.5,0.0,29.50,WNW,293,3.0,6.0,0,0.00,,,0.00,Weather View 32 v70,2013-02-27 05:12:00,
2013-02-27 00:17:00,43.5,0.0,29.55,WNW,293,0.0,6.0,0,0.00,,,0.00,Weather View 32 v70,2013-02-27 05:17:00,
2013-02-27 00:22:00,43.7,0.0,29.50,West,270,3.0,6.0,0,0.00,,,0.00,Weather View 32 v70,2013-02-27 05:22:00,
2013-02-27 00:27:00,43.7,0.0,29.50,West,270,0.0,6.0,0,0.00,,,0.00,Weather View 32 v70,2013-02-27 05:27:00,
2013-02-27 00:32:00,43.3,0.0,29.56,WNW,293,5.0,8.0,0,0.00,,,0.00,Weather View 32 v70,2013-02-27 05:32:00,
2013-02-27 00:37:00,43.2,0.0,29.55,WNW,293,4.0,8.0,0,0.00,,,0.00,Weather View 32 v70,2013-02-27 05:37:00,
2013-02-27 00:42:00,42.8,0.0,29.54,WNW,293,3.0,8.0,0,0.00,,,0.00,Weather View 32 v70,2013-02-27 05:42:00,
2013-02-27 00:47:00,43.0,0.0,29.50,West,270,0.0,8.0,0,0.00,,,0.00,Weather View 32 v70,2013-02-27 05:47:00,
2013-02-27 00:53:00,43.0,0.0,29.49,West,270,0.0,8.0,0,0.00,,,0.00,Weather View 32 v70,2013-02-27 05:53:00,
2013-02-27 00:58:00,43.0,0.0,29.50,West,270,0.0,8.0,0,0.00,,,0.00,Weather View 32 v70,2013-02-27 05:58:00,
2013-02-27 01:03:00,43.0,0.0,29.50,West,270,0.0,8.0,0,0.01,,,0.01,Weather View 32 v70,2013-02-27 06:03:00,
2013-02-27 01:08:00,43.0,0.0,29.53,WNW,293,3.0,8.0,0,0.01,,,0.01,Weather View 32 v70,2013-02-27 06:08:00,
2013-02-27 01:13:00,42.8,0.0,29.50,West,270,0.0,8.0,0,0.01,,,0.01,Weather View 32 v70,2013-02-27 06:13:00,
2013-02-27 01:19:00,42.8,0.0,29.50,West,270,0.0,8.0,0,0.01,,,0.01,Weather View 32 v70,2013-02-27 06:19:00,
2013-02-27 01:24:00,42.6,0.0,29.51,West,270,2.0,8.0,0,0.01,,,0.01,Weather View 32 v70,2013-02-27 06:24:00,
2013-02-27 01:29:00,42.4,0.0,29.50,West,270,0.0,8.0,0,0.01,,,0.01,Weather View 32 v70,2013-02-27 06:29:00,
2013-02-27 01:34:00,42.6,0.0,29.50,West,270,2.0,7.0,0,0.01,,,0.01,Weather View 32 v70,2013-02-27 06:34:00,
2013-02-27 01:40:00,42.4,0.0,29.50,West,270,0.0,7.0,0,0.01,,,0.01,Weather View 32 v70,2013-02-27 06:40:00,
2013-02-27 01:45:00,42.4,0.0,29.50,West,270,0.0,7.0,0,0.01,,,0.01,Weather View 32 v70,2013-02-27 06:45:00,
2013-02-27 01:50:00,42.4,0.0,29.51,WNW,293,0.0,7.0,0,0.01,,,0.01,Weather View 32 v70,2013-02-27 06:50:00,
2013-02-27 01:55:00,42.4,0.0,29.56,West,270,0.0,7.0,0,0.01,,,0.01,Weather View 32 v70,2013-02-27 06:55:00,
2013-02-27 02:00:00,42.6,0.0,29.51,West,270,2.0,8.0,0,0.00,,,0.01,Weather View 32 v70,2013-02-27 07:00:00,
2013-02-27 02:05:00,42.3,0.0,29.53,West,270,4.0,9.0,0,0.00,,,0.01,Weather View 32 v70,2013-02-27 07:05:00,
2013-02-27 02:10:00,42.3,0.0,29.53,West,270,1.0,9.0,0,0.00,,,0.01,Weather View 32 v70,2013-02-27 07:10:00,
2013-02-27 02:15:00,42.1,0.0,29.50,West,270,3.0,9.0,0,0.00,,,0.01,Weather View 32 v70,2013-02-27 07:15:00,
2013-02-27 02:25:00,42.3,0.0,29.51,West,270,0.0,9.0,0,0.00,,,0.01,Weather View 32 v70,2013-02-27 07:25:00,
2013-02-27 02:30:00,42.3,0.0,29.50,West,270,2.0,9.0,0,0.00,,,0.01,Weather View 32 v70,2013-02-27 07:30:00,
2013-02-27 02:35:00,42.1,0.0,29.52,WNW,293,4.0,9.0,0,0.00,,,0.01,Weather View 32 v70,2013-02-27 07:35:00,
2013-02-27 02:40:00,41.9,0.0,29.53,WNW,293,2.0,9.0,0,0.00,,,0.01,Weather View 32 v70,2013-02-27 07:40:00,
2013-02-27 02:45:00,42.1,0.0,29.52,WNW,293,1.0,9.0,0,0.00,,,0.01,Weather View 32 v70,2013-02-27 07:45:00,
2013-02-27 02:50:00,41.9,0.0,29.50,West,270,0.0,9.0,0,0.00,,,0.01,Weather View 32 v70,2013-02-27 07:50:00,
2013-02-27 02:55:00,41.9,0.0,29.53,West,270,1.0,9.0,0,0.00,,,0.01,Weather View 32 v70,2013-02-27 07:55:00,
2013-02-27 03:00:00,42.1,0.0,29.51,WNW,293,2.0,9.0,0,0.00,,,0.01,Weather View 32 v70,2013-02-27 08:00:00,
2013-02-27 03:05:00,41.9,0.0,29.49,North,0,5.0,8.0,0,0.00,,,0.01,Weather View 32 v70,2013-02-27 08:05:00,
2013-02-27 03:10:00,42.1,0.0,29.50,North,0,0.0,8.0,0,0.00,,,0.01,Weather View 32 v70,2013-02-27 08:10:00,
2013-02-27 03:15:00,42.1,0.0,29.48,North,0,4.0,8.0,0,0.00,,,0.01,Weather View 32 v70,2013-02-27 08:15:00,
2013-02-27 03:20:00,42.1,0.0,29.49,West,270,3.0,8.0,0,0.00,,,0.01,Weather View 32 v70,2013-02-27 08:20:00,
2013-02-27 03:25:00,41.9,0.0,29.49,North,0,0.0,8.0,0,0.00,,,0.01,Weather View 32 v70,2013-02-27 08:25:00,
2013-02-27 03:30:00,42.1,0.0,29.49,West,270,0.0,8.0,0,0.00,,,0.01,Weather View 32 v70,2013-02-27 08:30:00,
2013-02-27 03:35:00,42.1,0.0,29.52,WNW,293,4.0,8.0,0,0.00,,,0.01,Weather View 32 v70,2013-02-27 08:35:00,
2013-02-27 03:40:00,42.3,0.0,29.49,West,270,0.0,8.0,0,0.00,,,0.01,Weather View 32 v70,2013-02-27 08:40:00,
2013-02-27 03:45:00,42.3,0.0,29.51,West,270,0.0,8.0,0,0.00,,,0.01,Weather View 32 v70,2013-02-27 08:45:00,
2013-02-27 03:50:00,42.3,0.0,29.51,WNW,293,3.0,8.0,0,0.00,,,0.01,Weather View 32 v70,2013-02-27 08:50:00,
2013-02-27 03:55:00,42.1,0.0,29.50,West,270,5.0,9.0,0,0.00,,,0.01,Weather View 32 v70,2013-02-27 08:55:00,
2013-02-27 04:00:00,41.9,0.0,29.53,WNW,293,0.0,9.0,0,0.00,,,0.01,Weather View 32 v70,2013-02-27 09:00:00,
2013-02-27 04:05:00,42.1,0.0,29.53,West,270,3.0,9.0,0,0.00,,,0.01,Weather View 32 v70,2013-02-27 09:05:00,
2013-02-27 04:10:00,42.1,0.0,29.53,West,270,5.0,9.0,0,0.00,,,0.01,Weather View 32 v70,2013-02-27 09:10:00,
2013-02-27 04:15:00,41.9,0.0,29.55,West,270,6.0,9.0,0,0.00,,,0.01,Weather View 32 v70,2013-02-27 09:15:00,
2013-02-27 04:20:00,41.9,0.0,29.53,North,0,1.0,10.0,0,0.00,,,0.01,Weather View 32 v70,2013-02-27 09:20:00,
2013-02-27 04:25:00,41.9,0.0,29.52,West,270,1.0,12.0,0,0.00,,,0.01,Weather View 32 v70,2013-02-27 09:25:00,
2013-02-27 04:31:00,41.5,0.0,29.56,West,270,3.0,12.0,0,0.00,,,0.01,Weather View 32 v70,2013-02-27 09:31:00,
2013-02-27 04:36:00,41.5,0.0,29.54,WNW,293,7.0,12.0,0,0.00,,,0.01,Weather View 32 v70,2013-02-27 09:36:00,
2013-02-27 04:41:00,41.5,0.0,29.52,West,270,3.0,12.0,0,0.00,,,0.01,Weather View 32 v70,2013-02-27 09:41:00,
2013-02-27 04:46:00,41.5,0.0,29.53,WNW,293,5.0,12.0,0,0.00,,,0.01,Weather View 32 v70,2013-02-27 09:46:00,
2013-02-27 04:51:00,41.4,0.0,29.53,West,270,2.0,12.0,0,0.00,,,0.01,Weather View 32 v70,2013-02-27 09:51:00,
2013-02-27 04:56:00,41.4,0.0,29.56,West,270,3.0,12.0,0,0.00,,,0.01,Weather View 32 v70,2013-02-27 09:56:00,
2013-02-27 05:01:00,41.4,0.0,29.54,West,270,2.0,12.0,0,0.00,,,0.01,Weather View 32 v70,2013-02-27 10:01:00,
2013-02-27 05:07:00,41.4,0.0,29.57,West,270,2.0,12.0,0,0.00,,,0.01,Weather View 32 v70,2013-02-27 10:07:00,
2013-02-27 05:12:00,41.4,0.0,29.57,West,270,1.0,12.0,0,0.00,,,0.01,Weather View 32 v70,2013-02-27 10:12:00,
2013-02-27 05:17:00,41.4,0.0,29.53,West,270,4.0,12.0,0,0.00,,,0.01,Weather View 32 v70,2013-02-27 10:17:00,
2013-02-27 05:22:00,41.2,0.0,29.55,West,270,2.0,12.0,0,0.00,,,0.01,Weather View 32 v70,2013-02-27 10:22:00,
2013-02-27 05:27:00,41.2,0.0,29.57,WNW,293,1.0,11.0,0,0.00,,,0.01,Weather View 32 v70,2013-02-27 10:27:00,
2013-02-27 05:32:00,41.2,0.0,29.58,West,270,6.0,11.0,0,0.00,,,0.01,Weather View 32 v70,2013-02-27 10:32:00,
2013-02-27 05:37:00,41.2,0.0,29.58,West,270,2.0,10.0,0,0.00,,,0.01,Weather View 32 v70,2013-02-27 10:37:00,
2013-02-27 05:42:00,41.2,0.0,29.55,South,180,7.0,9.0,0,0.00,,,0.01,Weather View 32 v70,2013-02-27 10:42:00,
2013-02-27 05:48:00,41.4,0.0,29.55,West,270,2.0,9.0,0,0.00,,,0.01,Weather View 32 v70,2013-02-27 10:48:00,
2013-02-27 05:53:00,41.2,0.0,29.54,West,270,4.0,9.0,0,0.00,,,0.01,Weather View 32 v70,2013-02-27 10:53:00,
2013-02-27 05:58:00,41.2,0.0,29.55,North,0,5.0,9.0,0,0.00,,,0.01,Weather View 32 v70,2013-02-27 10:58:00,
2013-02-27 06:05:00,41.0,0.0,29.59,WNW,293,0.0,9.0,0,0.00,,,0.01,Weather View 32 v70,2013-02-27 11:05:00,
2013-02-27 06:10:00,41.0,0.0,29.60,West,270,2.0,9.0,0,0.00,,,0.01,Weather View 32 v70,2013-02-27 11:10:00,
2013-02-27 06:15:00,41.0,0.0,29.57,WNW,293,2.0,8.0,0,0.00,,,0.01,Weather View 32 v70,2013-02-27 11:15:00,
2013-02-27 06:20:00,40.8,0.0,29.58,West,270,1.0,8.0,0,0.00,,,0.01,Weather View 32 v70,2013-02-27 11:20:00,
2013-02-27 06:25:00,40.8,0.0,29.61,WNW,293,1.0,8.0,0,0.00,,,0.01,Weather View 32 v70,2013-02-27 11:25:00,
2013-02-27 06:30:00,40.5,0.0,29.60,West,270,2.0,8.0,0,0.00,,,0.01,Weather View 32 v70,2013-02-27 11:30:00,
2013-02-27 06:35:00,40.3,0.0,29.59,WNW,293,4.0,9.0,0,0.00,,,0.01,Weather View 32 v70,2013-02-27 11:35:00,
2013-02-27 06:40:00,40.3,0.0,29.56,West,270,6.0,9.0,0,0.00,,,0.01,Weather View 32 v70,2013-02-27 11:40:00,
2013-02-27 06:45:00,40.1,0.0,29.62,WNW,293,1.0,9.0,0,0.00,,,0.01,Weather View 32 v70,2013-02-27 11:45:00,
2013-02-27 06:50:00,39.9,0.0,29.59,WNW,293,5.0,9.0,0,0.00,,,0.01,Weather View 32 v70,2013-02-27 11:50:00,
2013-02-27 06:55:00,39.9,0.0,29.61,West,270,4.0,9.0,0,0.00,,,0.01,Weather View 32 v70,2013-02-27 11:55:00,
2013-02-27 07:01:00,39.9,0.0,29.58,West,270,4.0,9.0,0,0.00,,,0.01,Weather View 32 v70,2013-02-27 12:01:00,
2013-02-27 07:06:00,39.7,0.0,29.64,WNW,293,1.0,9.0,0,0.00,,,0.01,Weather View 32 v70,2013-02-27 12:06:00,
2013-02-27 07:11:00,39.7,0.0,29.61,WNW,293,5.0,9.0,0,0.00,,,0.01,Weather View 32 v70,2013-02-27 12:11:00,
2013-02-27 07:16:00,39.7,0.0,29.64,West,270,1.0,9.0,0,0.00,,,0.01,Weather View 32 v70,2013-02-27 12:16:00,
2013-02-27 07:21:00,39.9,0.0,29.61,West,270,1.0,9.0,0,0.00,,,0.01,Weather View 32 v70,2013-02-27 12:21:00,
2013-02-27 07:26:00,39.7,0.0,29.59,WNW,293,4.0,9.0,0,0.00,,,0.01,Weather View 32 v70,2013-02-27 12:26:00,
2013-02-27 07:31:00,39.9,0.0,29.65,West,270,0.0,9.0,0,0.00,,,0.01,Weather View 32 v70,2013-02-27 12:31:00,
2013-02-27 07:36:00,39.9,0.0,29.65,WNW,293,0.0,9.0,0,0.00,,,0.01,Weather View 32 v70,2013-02-27 12:36:00,
2013-02-27 07:41:00,40.3,0.0,29.61,West,270,1.0,9.0,0,0.00,,,0.01,Weather View 32 v70,2013-02-27 12:41:00,
2013-02-27 07:46:00,40.3,0.0,29.61,West,270,1.0,9.0,0,0.00,,,0.01,Weather View 32 v70,2013-02-27 12:46:00,
2013-02-27 07:52:00,40.5,0.0,29.61,West,270,0.0,9.0,0,0.00,,,0.01,Weather View 32 v70,2013-02-27 12:52:00,
2013-02-27 07:57:00,40.8,0.0,29.62,West,270,1.0,9.0,0,0.00,,,0.01,Weather View 32 v70,2013-02-27 12:57:00,
2013-02-27 08:05:00,41.4,0.0,29.63,West,270,1.0,8.0,0,0.00,,,0.01,Weather View 32 v70,2013-02-27 13:05:00,
2013-02-27 08:10:00,41.9,0.0,29.64,West,270,1.0,8.0,0,0.00,,,0.01,Weather View 32 v70,2013-02-27 13:10:00,
2013-02-27 08:15:00,42.1,0.0,29.64,WNW,293,0.0,8.0,0,0.00,,,0.01,Weather View 32 v70,2013-02-27 13:15:00,
2013-02-27 08:20:00,42.3,0.0,29.67,WNW,293,4.0,9.0,0,0.00,,,0.01,Weather View 32 v70,2013-02-27 13:20:00,
2013-02-27 08:25:00,42.3,0.0,29.63,West,270,1.0,9.0,0,0.00,,,0.01,Weather View 32 v70,2013-02-27 13:25:00,
2013-02-27 08:30:00,43.0,0.0,29.66,West,270,2.0,9.0,0,0.00,,,0.01,Weather View 32 v70,2013-02-27 13:30:00,
2013-02-27 08:35:00,43.7,0.0,29.65,West,270,3.0,9.0,0,0.00,,,0.01,Weather View 32 v70,2013-02-27 13:35:00,
2013-02-27 08:40:00,44.2,0.0,29.66,West,270,2.0,9.0,0,0.00,,,0.01,Weather View 32 v70,2013-02-27 13:40:00,
2013-02-27 08:45:00,44.8,0.0,29.65,West,270,1.0,9.0,0,0.00,,,0.01,Weather View 32 v70,2013-02-27 13:45:00,
2013-02-27 08:50:00,45.1,0.0,29.65,WNW,293,3.0,9.0,0,0.00,,,0.01,Weather View 32 v70,2013-02-27 13:50:00,
2013-02-27 08:55:00,45.7,0.0,29.65,West,270,4.0,9.0,0,0.00,,,0.01,Weather View 32 v70,2013-02-27 13:55:00,
2013-02-27 09:00:00,46.0,0.0,29.67,North,0,5.0,9.0,0,0.00,,,0.01,Weather View 32 v70,2013-02-27 14:00:00,
2013-02-27 09:05:00,46.8,0.0,29.67,West,270,1.0,9.0,0,0.00,,,0.01,Weather View 32 v70,2013-02-27 14:05:00,
2013-02-27 09:10:00,47.3,0.0,29.67,SSE,158,4.0,9.0,0,0.00,,,0.01,Weather View 32 v70,2013-02-27 14:10:00,
2013-02-27 09:15:00,48.4,0.0,29.65,North,0,9.0,9.0,0,0.00,,,0.01,Weather View 32 v70,2013-02-27 14:15:00,
2013-02-27 09:20:00,49.3,0.0,29.67,WNW,293,3.0,10.0,0,0.00,,,0.01,Weather View 32 v70,2013-02-27 14:20:00,
2013-02-27 09:25:00,50.4,0.0,29.67,West,270,3.0,10.0,0,0.00,,,0.01,Weather View 32 v70,2013-02-27 14:25:00,
2013-02-27 09:31:00,51.3,0.0,29.68,WNW,293,1.0,10.0,0,0.00,,,0.01,Weather View 32 v70,2013-02-27 14:31:00,
2013-02-27 09:36:00,51.6,0.0,29.69,West,270,3.0,10.0,0,0.00,,,0.01,Weather View 32 v70,2013-02-27 14:36:00,
2013-02-27 09:41:00,52.5,0.0,29.66,West,270,0.0,10.0,0,0.00,,,0.01,Weather View 32 v70,2013-02-27 14:41:00,
2013-02-27 09:50:00,53.4,0.0,29.67,WNW,293,4.0,10.0,0,0.00,,,0.01,Weather View 32 v70,2013-02-27 14:50:00,
2013-02-27 09:55:00,53.6,0.0,29.67,West,270,3.0,10.0,0,0.00,,,0.01,Weather View 32 v70,2013-02-27 14:55:00,
2013-02-27 10:00:00,54.3,0.0,29.66,West,270,4.0,10.0,0,0.00,,,0.01,Weather View 32 v70,2013-02-27 15:00:00,
2013-02-27 10:05:00,54.7,0.0,29.70,WNW,293,3.0,10.0,0,0.00,,,0.01,Weather View 32 v70,2013-02-27 15:05:00,
2013-02-27 10:10:00,54.3,0.0,29.68,West,270,3.0,10.0,0,0.00,,,0.01,Weather View 32 v70,2013-02-27 15:10:00,
2013-02-27 10:19:00,54.7,0.0,29.69,West,270,3.0,10.0,0,0.00,,,0.01,Weather View 32 v70,2013-02-27 15:19:00,
2013-02-27 10:25:00,54.7,0.0,29.69,WNW,293,0.0,10.0,0,0.00,,,0.01,Weather View 32 v70,2013-02-27 15:25:00,
2013-02-27 10:30:00,55.4,0.0,29.70,West,270,3.0,10.0,0,0.00,,,0.01,Weather View 32 v70,2013-02-27 15:30:00,
2013-02-27 10:35:00,56.3,0.0,29.69,WNW,293,3.0,10.0,0,0.00,,,0.01,Weather View 32 v70,2013-02-27 15:35:00,
2013-02-27 10:40:00,56.3,0.0,29.71,WNW,293,3.0,11.0,0,0.00,,,0.01,Weather View 32 v70,2013-02-27 15:40:00,
2013-02-27 10:45:00,56.3,0.0,29.70,WNW,293,4.0,13.0,0,0.00,,,0.01,Weather View 32 v70,2013-02-27 15:45:00,
2013-02-27 10:50:00,56.1,0.0,29.70,West,270,9.0,13.0,0,0.00,,,0.01,Weather View 32 v70,2013-02-27 15:50:00,
2013-02-27 10:55:00,56.7,0.0,29.69,West,270,5.0,13.0,0,0.00,,,0.01,Weather View 32 v70,2013-02-27 15:55:00,
2013-02-27 11:00:00,57.6,0.0,29.67,West,270,4.0,13.0,0,0.00,,,0.01,Weather View 32 v70,2013-02-27 16:00:00,
2013-02-27 11:05:00,58.3,0.0,29.66,West,270,5.0,13.0,0,0.00,,,0.01,Weather View 32 v70,2013-02-27 16:05:00,
2013-02-27 11:10:00,57.9,0.0,29.70,WNW,293,5.0,13.0,0,0.00,,,0.01,Weather View 32 v70,2013-02-27 16:10:00,
2013-02-27 11:15:00,57.6,0.0,29.71,WNW,293,6.0,13.0,0,0.00,,,0.01,Weather View 32 v70,2013-02-27 16:15:00,
2013-02-27 11:20:00,57.4,0.0,29.72,WNW,293,5.0,13.0,0,0.00,,,0.01,Weather View 32 v70,2013-02-27 16:20:00,
2013-02-27 11:25:00,57.2,0.0,29.70,West,270,4.0,13.0,0,0.00,,,0.01,Weather View 32 v70,2013-02-27 16:25:00,
2013-02-27 11:31:00,57.9,0.0,29.70,South,180,1.0,13.0,0,0.00,,,0.01,Weather View 32 v70,2013-02-27 16:31:00,
2013-02-27 11:36:00,58.6,0.0,29.70,WNW,293,6.0,13.0,0,0.00,,,0.01,Weather View 32 v70,2013-02-27 16:36:00,
2013-02-27 11:41:00,57.9,0.0,29.73,WNW,293,6.0,13.0,0,0.00,,,0.01,Weather View 32 v70,2013-02-27 16:41:00,
2013-02-27 11:46:00,57.6,0.0,29.71,West,270,1.0,13.0,0,0.00,,,0.01,Weather View 32 v70,2013-02-27 16:46:00,
2013-02-27 11:51:00,58.6,0.0,29.68,WNW,293,5.0,13.0,0,0.00,,,0.01,Weather View 32 v70,2013-02-27 16:51:00,
2013-02-27 11:57:00,57.9,0.0,29.69,South,180,4.0,13.0,0,0.00,,,0.01,Weather View 32 v70,2013-02-27 16:57:00,
2013-02-27 12:02:00,59.2,0.0,29.70,NW,315,5.0,12.0,0,0.00,,,0.01,Weather View 32 v70,2013-02-27 17:02:00,
2013-02-27 12:07:00,58.3,0.0,29.71,WNW,293,1.0,12.0,0,0.00,,,0.01,Weather View 32 v70,2013-02-27 17:07:00,
2013-02-27 12:12:00,58.5,0.0,29.66,West,270,4.0,12.0,0,0.00,,,0.01,Weather View 32 v70,2013-02-27 17:12:00,
2013-02-27 12:17:00,58.6,0.0,29.71,WNW,293,2.0,12.0,0,0.00,,,0.01,Weather View 32 v70,2013-02-27 17:17:00,
2013-02-27 12:22:00,59.2,0.0,29.66,West,270,2.0,13.0,0,0.00,,,0.01,Weather View 32 v70,2013-02-27 17:22:00,
2013-02-27 12:27:00,59.2,0.0,29.70,WNW,293,4.0,13.0,0,0.00,,,0.01,Weather View 32 v70,2013-02-27 17:27:00,
2013-02-27 12:33:00,58.5,0.0,29.70,WNW,293,6.0,13.0,0,0.00,,,0.01,Weather View 32 v70,2013-02-27 17:33:00,
2013-02-27 12:38:00,58.6,0.0,29.70,WNW,293,3.0,13.0,0,0.00,,,0.01,Weather View 32 v70,2013-02-27 17:38:00,
2013-02-27 12:43:00,59.7,0.0,29.68,WNW,293,4.0,13.0,0,0.00,,,0.01,Weather View 32 v70,2013-02-27 17:43:00,
2013-02-27 12:48:00,60.6,0.0,29.64,North,0,10.0,13.0,0,0.00,,,0.01,Weather View 32 v70,2013-02-27 17:48:00,
2013-02-27 12:53:00,60.6,0.0,29.66,WNW,293,6.0,14.0,0,0.00,,,0.01,Weather View 32 v70,2013-02-27 17:53:00,
2013-02-27 12:58:00,60.1,0.0,29.63,NW,315,2.0,14.0,0,0.00,,,0.01,Weather View 32 v70,2013-02-27 17:58:00,
2013-02-27 13:04:00,59.7,0.0,29.68,WNW,293,4.0,14.0,0,0.00,,,0.01,Weather View 32 v70,2013-02-27 18:04:00,
2013-02-27 13:09:00,59.4,0.0,29.68,WNW,293,3.0,14.0,0,0.00,,,0.01,Weather View 32 v70,2013-02-27 18:09:00,
2013-02-27 13:14:00,60.1,0.0,29.61,West,270,5.0,14.0,0,0.00,,,0.01,Weather View 32 v70,2013-02-27 18:14:00,
2013-02-27 13:19:00,60.4,0.0,29.65,WNW,293,3.0,14.0,0,0.00,,,0.01,Weather View 32 v70,2013-02-27 18:19:00,
2013-02-27 13:24:00,59.7,0.0,29.67,South,180,5.0,14.0,0,0.00,,,0.01,Weather View 32 v70,2013-02-27 18:24:00,
2013-02-27 13:29:00,59.9,0.0,29.66,WNW,293,2.0,14.0,0,0.00,,,0.01,Weather View 32 v70,2013-02-27 18:29:00,
2013-02-27 13:35:00,60.1,0.0,29.66,WNW,293,2.0,14.0,0,0.00,,,0.01,Weather View 32 v70,2013-02-27 18:35:00,
2013-02-27 13:40:00,59.4,0.0,29.63,WNW,293,3.0,14.0,0,0.00,,,0.01,Weather View 32 v70,2013-02-27 18:40:00,
2013-02-27 13:45:00,60.1,0.0,29.60,West,270,6.0,14.0,0,0.00,,,0.01,Weather View 32 v70,2013-02-27 18:45:00,
2013-02-27 13:50:00,60.6,0.0,29.64,NW,315,5.0,14.0,0,0.00,,,0.01,Weather View 32 v70,2013-02-27 18:50:00,
2013-02-27 13:55:00,60.4,0.0,29.62,West,270,5.0,12.0,0,0.00,,,0.01,Weather View 32 v70,2013-02-27 18:55:00,
2013-02-27 14:00:00,60.3,0.0,29.62,South,180,8.0,12.0,0,0.00,,,0.01,Weather View 32 v70,2013-02-27 19:00:00,
2013-02-27 14:05:00,60.1,0.0,29.61,West,270,8.0,12.0,0,0.00,,,0.01,Weather View 32 v70,2013-02-27 19:05:00,
2013-02-27 14:10:00,60.3,0.0,29.60,South,180,9.0,12.0,0,0.00,,,0.01,Weather View 32 v70,2013-02-27 19:10:00,
2013-02-27 14:15:00,60.3,0.0,29.63,West,270,1.0,13.0,0,0.00,,,0.01,Weather View 32 v70,2013-02-27 19:15:00,
2013-02-27 14:20:00,60.3,0.0,29.62,South,180,2.0,13.0,0,0.00,,,0.01,Weather View 32 v70,2013-02-27 19:20:00,
2013-02-27 14:25:00,59.5,0.0,29.65,West,270,2.0,13.0,0,0.00,,,0.01,Weather View 32 v70,2013-02-27 19:25:00,
2013-02-27 14:31:00,60.1,0.0,29.62,WNW,293,5.0,13.0,0,0.00,,,0.01,Weather View 32 v70,2013-02-27 19:31:00,
2013-02-27 14:36:00,59.7,0.0,29.62,West,270,8.0,13.0,0,0.00,,,0.01,Weather View 32 v70,2013-02-27 19:36:00,
2013-02-27 14:41:00,59.7,0.0,29.60,North,0,4.0,13.0,0,0.00,,,0.01,Weather View 32 v70,2013-02-27 19:41:00,
2013-02-27 14:46:00,59.4,0.0,29.62,West,270,4.0,13.0,0,0.00,,,0.01,Weather View 32 v70,2013-02-27 19:46:00,
2013-02-27 14:51:00,59.2,0.0,29.66,WNW,293,5.0,13.0,0,0.00,,,0.01,Weather View 32 v70,2013-02-27 19:51:00,
2013-02-27 14:56:00,59.2,0.0,29.66,West,270,3.0,13.0,0,0.00,,,0.01,Weather View 32 v70,2013-02-27 19:56:00,
2013-02-27 15:01:00,59.4,0.0,29.60,North,0,6.0,13.0,0,0.00,,,0.01,Weather View 32 v70,2013-02-27 20:01:00,
2013-02-27 15:06:00,59.4,0.0,29.59,West,270,4.0,13.0,0,0.00,,,0.01,Weather View 32 v70,2013-02-27 20:06:00,
2013-02-27 15:12:00,59.7,0.0,29.60,WNW,293,3.0,12.0,0,0.00,,,0.01,Weather View 32 v70,2013-02-27 20:12:00,
2013-02-27 15:17:00,59.9,0.0,29.59,West,270,2.0,12.0,0,0.00,,,0.01,Weather View 32 v70,2013-02-27 20:17:00,
2013-02-27 15:22:00,59.9,0.0,29.60,West,270,3.0,12.0,0,0.00,,,0.01,Weather View 32 v70,2013-02-27 20:22:00,
2013-02-27 15:27:00,59.4,0.0,29.61,South,180,6.0,12.0,0,0.00,,,0.01,Weather View 32 v70,2013-02-27 20:27:00,
2013-02-27 15:32:00,59.2,0.0,29.59,West,270,4.0,12.0,0,0.00,,,0.01,Weather View 32 v70,2013-02-27 20:32:00,
2013-02-27 15:37:00,59.0,0.0,29.60,West,270,3.0,12.0,0,0.00,,,0.01,Weather View 32 v70,2013-02-27 20:37:00,
2013-02-27 15:43:00,59.0,0.0,29.58,West,270,4.0,12.0,0,0.00,,,0.01,Weather View 32 v70,2013-02-27 20:43:00,
2013-02-27 15:48:00,58.8,0.0,29.65,West,270,3.0,12.0,0,0.61,,,0.01,Weather View 32 v70,2013-02-27 20:48:00,
2013-02-27 15:53:00,58.8,0.0,29.58,South,180,7.0,12.0,0,0.00,,,0.01,Weather View 32 v70,2013-02-27 20:53:00,
2013-02-27 15:58:00,58.5,0.0,29.60,WNW,293,9.0,12.0,0,0.00,,,0.01,Weather View 32 v70,2013-02-27 20:58:00,
2013-02-27 16:04:00,58.3,0.0,29.61,West,270,6.0,12.0,0,0.00,,,0.01,Weather View 32 v70,2013-02-27 21:04:00,
2013-02-27 16:09:00,57.9,0.0,29.59,South,180,2.0,12.0,0,0.00,,,0.01,Weather View 32 v70,2013-02-27 21:09:00,
2013-02-27 16:14:00,57.7,0.0,29.59,West,270,2.0,12.0,0,0.00,,,0.01,Weather View 32 v70,2013-02-27 21:14:00,
2013-02-27 16:19:00,57.4,0.0,29.61,North,0,4.0,12.0,0,0.00,,,0.01,Weather View 32 v70,2013-02-27 21:19:00,
2013-02-27 16:24:00,57.4,0.0,29.60,West,270,7.0,12.0,0,0.00,,,0.01,Weather View 32 v70,2013-02-27 21:24:00,
2013-02-27 16:29:00,57.0,0.0,29.62,West,270,3.0,12.0,0,0.00,,,0.01,Weather View 32 v70,2013-02-27 21:29:00,
2013-02-27 16:35:00,56.8,0.0,29.61,North,0,5.0,10.0,0,0.00,,,0.01,Weather View 32 v70,2013-02-27 21:35:00,
2013-02-27 16:40:00,57.0,0.0,29.59,West,270,4.0,10.0,0,0.00,,,0.01,Weather View 32 v70,2013-02-27 21:40:00,
2013-02-27 16:45:00,56.7,0.0,29.61,WNW,293,3.0,10.0,0,0.00,,,0.01,Weather View 32 v70,2013-02-27 21:45:00,
2013-02-27 16:50:00,56.5,0.0,29.60,West,270,0.0,10.0,0,0.00,,,0.01,Weather View 32 v70,2013-02-27 21:50:00,
2013-02-27 16:55:00,56.1,0.0,29.59,West,270,4.0,10.0,0,0.00,,,0.01,Weather View 32 v70,2013-02-27 21:55:00,
2013-02-27 17:00:00,56.1,0.0,29.58,West,270,2.0,10.0,0,0.00,,,0.01,Weather View 32 v70,2013-02-27 22:00:00,
2013-02-27 17:05:00,55.9,0.0,29.63,WNW,293,4.0,10.0,0,0.00,,,0.01,Weather View 32 v70,2013-02-27 22:05:00,
2013-02-27 17:10:00,55.9,0.0,29.60,West,270,1.0,10.0,0,0.00,,,0.01,Weather View 32 v70,2013-02-27 22:10:00,
2013-02-27 17:15:00,55.6,0.0,29.61,North,0,9.0,10.0,0,0.00,,,0.01,Weather View 32 v70,2013-02-27 22:15:00,
2013-02-27 17:21:00,55.2,0.0,29.60,South,180,5.0,12.0,0,0.00,,,0.01,Weather View 32 v70,2013-02-27 22:21:00,
2013-02-27 17:26:00,54.9,0.0,29.60,West,270,4.0,12.0,0,0.00,,,0.01,Weather View 32 v70,2013-02-27 22:26:00,
2013-02-27 17:31:00,54.7,0.0,29.60,North,0,3.0,12.0,0,0.00,,,0.01,Weather View 32 v70,2013-02-27 22:31:00,
2013-02-27 17:36:00,54.1,0.0,29.60,North,0,1.0,12.0,0,0.00,,,0.01,Weather View 32 v70,2013-02-27 22:36:00,
2013-02-27 17:41:00,53.6,0.0,29.59,West,270,2.0,12.0,0,0.00,,,0.01,Weather View 32 v70,2013-02-27 22:41:00,
2013-02-27 17:46:00,53.2,0.0,29.61,South,180,4.0,12.0,0,0.00,,,0.01,Weather View 32 v70,2013-02-27 22:46:00,
2013-02-27 17:51:00,53.1,0.0,29.59,West,270,1.0,12.0,0,0.00,,,0.01,Weather View 32 v70,2013-02-27 22:51:00,
2013-02-27 17:56:00,52.7,0.0,29.60,West,270,3.0,12.0,0,0.00,,,0.01,Weather View 32 v70,2013-02-27 22:56:00,
2013-02-27 18:01:00,52.5,0.0,29.61,West,270,1.0,12.0,0,0.00,,,0.01,Weather View 32 v70,2013-02-27 23:01:00,
2013-02-27 18:07:00,52.3,0.0,29.61,West,270,1.0,12.0,0,0.00,,,0.01,Weather View 32 v70,2013-02-27 23:07:00,
2013-02-27 18:12:00,51.8,0.0,29.62,North,0,2.0,12.0,0,0.00,,,0.01,Weather View 32 v70,2013-02-27 23:12:00,
2013-02-27 18:17:00,51.4,0.0,29.60,West,270,0.0,11.0,0,0.00,,,0.01,Weather View 32 v70,2013-02-27 23:17:00,
2013-02-27 18:22:00,51.1,0.0,29.60,North,0,0.0,11.0,0,0.00,,,0.01,Weather View 32 v70,2013-02-27 23:22:00,
2013-02-27 18:27:00,50.9,0.0,29.61,West,270,0.0,10.0,0,0.00,,,0.01,Weather View 32 v70,2013-02-27 23:27:00,
2013-02-27 18:32:00,50.0,0.0,29.61,West,270,0.0,10.0,0,0.00,,,0.01,Weather View 32 v70,2013-02-27 23:32:00,
2013-02-27 18:37:00,49.8,0.0,29.61,West,270,1.0,10.0,0,0.00,,,0.01,Weather View 32 v70,2013-02-27 23:37:00,
2013-02-27 18:42:00,49.5,0.0,29.61,South,180,1.0,10.0,0,0.00,,,0.01,Weather View 32 v70,2013-02-27 23:42:00,
2013-02-27 18:47:00,49.3,0.0,29.61,West,270,1.0,10.0,0,0.00,,,0.01,Weather View 32 v70,2013-02-27 23:47:00,
2013-02-27 18:52:00,49.1,0.0,29.61,North,0,2.0,10.0,0,0.00,,,0.01,Weather View 32 v70,2013-02-27 23:52:00,
2013-02-27 18:57:00,48.9,0.0,29.60,West,270,1.0,10.0,0,0.00,,,0.01,Weather View 32 v70,2013-02-27 23:57:00,
2013-02-27 19:03:00,48.2,0.0,29.62,West,270,0.0,7.0,0,0.00,,,0.01,Weather View 32 v70,2013-02-28 00:03:00,
2013-02-27 19:08:00,48.2,0.0,29.61,West,270,1.0,4.0,0,0.00,,,0.01,Weather View 32 v70,2013-02-28 00:08:00,
2013-02-27 19:15:00,48.0,0.0,29.61,West,270,0.0,4.0,0,0.00,,,0.01,Weather View 32 v70,2013-02-28 00:15:00,
2013-02-27 19:20:00,47.7,0.0,29.62,West,270,2.0,4.0,0,0.00,,,0.01,Weather View 32 v70,2013-02-28 00:20:00,
2013-02-27 19:30:00,47.3,0.0,29.62,West,270,0.0,4.0,0,0.00,,,0.01,Weather View 32 v70,2013-02-28 00:30:00,
2013-02-27 19:36:00,46.9,0.0,29.62,West,270,0.0,4.0,0,0.00,,,0.01,Weather View 32 v70,2013-02-28 00:36:00,
2013-02-27 19:41:00,46.9,0.0,29.61,West,270,1.0,4.0,0,0.00,,,0.01,Weather View 32 v70,2013-02-28 00:41:00,
2013-02-27 19:46:00,46.8,0.0,29.61,West,270,1.0,4.0,0,0.00,,,0.01,Weather View 32 v70,2013-02-28 00:46:00,
2013-02-27 19:51:00,46.6,0.0,29.61,West,270,0.0,4.0,0,0.00,,,0.01,Weather View 32 v70,2013-02-28 00:51:00,
2013-02-27 19:56:00,46.4,0.0,29.62,West,270,0.0,4.0,0,0.00,,,0.01,Weather View 32 v70,2013-02-28 00:56:00,
2013-02-27 20:01:00,46.0,0.0,29.61,West,270,0.0,4.0,0,0.00,,,0.01,Weather View 32 v70,2013-02-28 01:01:00,
2013-02-27 20:06:00,46.2,0.0,29.61,West,270,0.0,4.0,0,0.00,,,0.01,Weather View 32 v70,2013-02-28 01:06:00,
2013-02-27 20:12:00,46.2,0.0,29.61,West,270,0.0,4.0,0,0.00,,,0.01,Weather View 32 v70,2013-02-28 01:12:00,
2013-02-27 20:17:00,46.0,0.0,29.60,West,270,0.0,4.0,0,0.00,,,0.01,Weather View 32 v70,2013-02-28 01:17:00,
2013-02-27 20:22:00,46.0,0.0,29.61,North,0,1.0,5.0,0,0.00,,,0.01,Weather View 32 v70,2013-02-28 01:22:00,
2013-02-27 20:27:00,45.7,0.0,29.61,West,270,0.0,5.0,0,0.00,,,0.01,Weather View 32 v70,2013-02-28 01:27:00,
2013-02-27 20:32:00,45.7,0.0,29.61,West,270,0.0,5.0,0,0.00,,,0.01,Weather View 32 v70,2013-02-28 01:32:00,
2013-02-27 20:37:00,45.5,0.0,29.61,West,270,0.0,5.0,0,0.00,,,0.01,Weather View 32 v70,2013-02-28 01:37:00,
2013-02-27 20:42:00,45.5,0.0,29.61,North,0,2.0,5.0,0,0.00,,,0.01,Weather View 32 v70,2013-02-28 01:42:00,
2013-02-27 20:47:00,45.1,0.0,29.61,West,270,0.0,5.0,0,0.00,,,0.01,Weather View 32 v70,2013-02-28 01:47:00,
2013-02-27 20:52:00,45.0,0.0,29.60,West,270,1.0,5.0,0,0.00,,,0.01,Weather View 32 v70,2013-02-28 01:52:00,
2013-02-27 20:58:00,44.8,0.0,29.60,West,270,1.0,5.0,0,0.00,,,0.01,Weather View 32 v70,2013-02-28 01:58:00,
2013-02-27 21:03:00,44.6,0.0,29.61,North,0,3.0,5.0,0,0.00,,,0.01,Weather View 32 v70,2013-02-28 02:03:00,
2013-02-27 21:08:00,44.4,0.0,29.59,West,270,0.0,5.0,0,0.00,,,0.01,Weather View 32 v70,2013-02-28 02:08:00,
2013-02-27 21:13:00,44.6,0.0,29.60,West,270,0.0,5.0,0,0.00,,,0.01,Weather View 32 v70,2013-02-28 02:13:00,
2013-02-27 21:18:00,44.6,0.0,29.61,West,270,1.0,5.0,0,0.00,,,0.01,Weather View 32 v70,2013-02-28 02:18:00,
2013-02-27 21:23:00,44.6,0.0,29.60,West,270,3.0,6.0,0,0.00,,,0.01,Weather View 32 v70,2013-02-28 02:23:00,
2013-02-27 21:28:00,44.4,0.0,29.61,West,270,3.0,6.0,0,0.00,,,0.01,Weather View 32 v70,2013-02-28 02:28:00,
2013-02-27 21:34:00,44.6,0.0,29.60,West,270,1.0,7.0,0,0.00,,,0.01,Weather View 32 v70,2013-02-28 02:34:00,
2013-02-27 21:39:00,44.6,0.0,29.63,West,270,0.0,7.0,0,0.00,,,0.01,Weather View 32 v70,2013-02-28 02:39:00,
2013-02-27 21:44:00,44.6,0.0,29.63,West,270,2.0,7.0,0,0.00,,,0.01,Weather View 32 v70,2013-02-28 02:44:00,
2013-02-27 21:49:00,44.8,0.0,29.64,WNW,293,2.0,7.0,0,0.00,,,0.01,Weather View 32 v70,2013-02-28 02:49:00,
2013-02-27 21:54:00,44.6,0.0,29.64,West,270,1.0,7.0,0,0.00,,,0.01,Weather View 32 v70,2013-02-28 02:54:00,
2013-02-27 22:00:00,44.8,0.0,29.61,West,270,2.0,7.0,0,0.00,,,0.01,Weather View 32 v70,2013-02-28 03:00:00,
2013-02-27 22:05:00,44.8,0.0,29.63,West,270,4.0,7.0,0,0.00,,,0.01,Weather View 32 v70,2013-02-28 03:05:00,
2013-02-27 22:10:00,45.0,0.0,29.61,WNW,293,3.0,7.0,0,0.00,,,0.01,Weather View 32 v70,2013-02-28 03:10:00,
2013-02-27 22:15:00,45.0,0.0,29.61,West,270,1.0,7.0,0,0.00,,,0.01,Weather View 32 v70,2013-02-28 03:15:00,
2013-02-27 22:25:00,45.1,0.0,29.60,West,270,2.0,7.0,0,0.00,,,0.01,Weather View 32 v70,2013-02-28 03:25:00,
2013-02-27 22:30:00,44.8,0.0,29.60,West,270,1.0,5.0,0,0.00,,,0.01,Weather View 32 v70,2013-02-28 03:30:00,
2013-02-27 22:35:00,45.0,0.0,29.60,West,270,0.0,6.0,0,0.00,,,0.01,Weather View 32 v70,2013-02-28 03:35:00,
2013-02-27 22:40:00,45.0,0.0,29.59,West,270,1.0,6.0,0,0.00,,,0.01,Weather View 32 v70,2013-02-28 03:40:00,
2013-02-27 22:45:00,44.6,0.0,29.60,West,270,0.0,6.0,0,0.00,,,0.01,Weather View 32 v70,2013-02-28 03:45:00,
2013-02-27 22:50:00,44.4,0.0,29.60,West,270,0.0,6.0,0,0.00,,,0.01,Weather View 32 v70,2013-02-28 03:50:00,
2013-02-27 22:55:00,44.2,0.0,29.60,West,270,0.0,6.0,0,0.00,,,0.01,Weather View 32 v70,2013-02-28 03:55:00,
2013-02-27 23:05:00,43.9,0.0,29.59,North,0,1.0,6.0,0,0.00,,,0.01,Weather View 32 v70,2013-02-28 04:05:00,
2013-02-27 23:10:00,43.7,0.0,29.59,West,270,0.0,6.0,0,0.00,,,0.01,Weather View 32 v70,2013-02-28 04:10:00,
2013-02-27 23:15:00,43.7,0.0,29.58,West,270,0.0,6.0,0,0.00,,,0.01,Weather View 32 v70,2013-02-28 04:15:00,
2013-02-27 23:20:00,43.5,0.0,29.59,West,270,0.0,6.0,0,0.00,,,0.01,Weather View 32 v70,2013-02-28 04:20:00,
2013-02-27 23:25:00,43.5,0.0,29.59,West,270,0.0,6.0,0,0.00,,,0.01,Weather View 32 v70,2013-02-28 04:25:00,
2013-02-27 23:30:00,43.5,0.0,29.58,West,270,0.0,6.0,0,0.00,,,0.01,Weather View 32 v70,2013-02-28 04:30:00,
2013-02-27 23:35:00,43.5,0.0,29.59,West,270,0.0,3.0,0,0.00,,,0.01,Weather View 32 v70,2013-02-28 04:35:00,
2013-02-27 23:40:00,43.5,0.0,29.66,NW,315,4.0,5.0,0,0.00,,,0.01,Weather View 32 v70,2013-02-28 04:40:00,
2013-02-27 23:45:00,44.2,0.0,29.66,WNW,293,3.0,7.0,0,0.00,,,0.01,Weather View 32 v70,2013-02-28 04:45:00,
2013-02-27 23:50:00,45.0,0.0,29.67,WNW,293,0.0,7.0,0,0.00,,,0.01,Weather View 32 v70,2013-02-28 04:50:00,
2013-02-27 23:55:00,45.0,0.0,29.66,WNW,293,3.0,8.0,0,0.00,,,0.01,Weather View 32 v70,2013-02-28 04:55:00,